User: anonymous   Login
Location: Oshawa
(43.9000°N, 78.8670°W)
Time: 23:46:29
(UTC-04:00)
Language:

Cosmos 1953 Rocket - Orbit

View from above orbital plane
View from above orbital plane
View from above satellite
View from above satellite

Ground track
Ground track

The orbit data is extracted from the following two-line orbital elements,

1 19211U 88050B   14295.38824006  .00000760  00000-0  91302-4 0  3814
2 19211 082.5293 028.2880 0023314 071.4211 332.8033 14.82500675423225
Epoch (UTC): 22 October 2014 09:19:03
Eccentricity: 0.0023314
inclination: 82.5293°
perigee height: 605 km
apogee height: 638 km
right ascension of ascending node: 28.2880°
argument of perigee: 71.4211°
revolutions per day: 14.82500675
mean anomaly at epoch: 332.8033°
orbit number at epoch: 42322

The dashed part of the orbit path shows where the satellite is in the earth's shadow,  

DLR